| time (UTC) | temp F | wind direction | speed MPH | gust MPH | rain 1hr in | rain 24hr in | rain mn in | humidity % | barometer mb |
| 20260904055629 | 66 | 24 | 6.0 | 12.0 | 0.00 | 0.00 | 0.00 | 77 | 1008.4 |
| 20260904045630 | 64 | 46 | 6.0 | 13.0 | 0.00 | 0.00 | 0.00 | 77 | 1009.3 |
| 20260904035628 | 62 | 50 | 6.0 | 13.0 | 0.00 | 0.00 | 0.00 | 80 | 1010.3 |
| 20260904025630 | 58 | 40 | 6.0 | 16.0 | 0.00 | 0.00 | 0.00 | 88 | 1011.8 |
| 20260904015630 | 58 | 60 | 6.0 | 17.0 | 0.00 | 0.00 | 0.00 | 82 | 1014.2 |
| 20260904005628 | 62 | 3 | 10.0 | 20.0 | 0.00 | 0.00 | 0.00 | 69 | 1014.6 |
| 20260903235628 | 62 | 60 | 6.0 | 11.0 | 0.00 | 0.00 | 0.00 | 70 | 1015.0 |
| 20260903232630 | 59 | 12 | 5.0 | 12.0 | 0.00 | 0.00 | 0.00 | 75 | 1015.1 |
| 20260903215629 | 58 | 55 | 6.0 | 14.0 | 0.00 | 0.00 | 0.00 | 77 | 1015.0 |
| 20260903205630 | 57 | 65 | 5.0 | 14.0 | 0.00 | 0.00 | 0.00 | 79 | 1014.6 |
| 20260903195626 | 56 | 93 | 6.0 | 14.0 | 0.00 | 0.00 | 0.00 | 84 | 1015.4 |
| 20260903185633 | 54 | 48 | 4.0 | 10.0 | 0.00 | 0.00 | 0.00 | 84 | 1016.8 |
| 20260903185627 | 56 | 41 | 6.0 | 12.0 | 0.00 | 0.00 | 0.00 | 85 | 1015.4 |
| 20260903172627 | 54 | 80 | 3.0 | 6.0 | 0.00 | 0.00 | 0.00 | 77 | 1017.2 |
| 20260903155627 | 54 | 92 | 0.0 | 2.0 | 0.00 | 0.00 | 0.00 | 73 | 1018.0 |
| 20260903145621 | 55 | 91 | 0.0 | 3.0 | 0.00 | 0.00 | 0.00 | 74 | 1018.7 |
| 20260903135620 | 55 | 171 | 0.0 | 2.0 | 0.00 | 0.00 | 0.00 | 76 | 1019.4 |
| 20260903125618 | 56 | 220 | 0.0 | 1.0 | 0.00 | 0.00 | 0.00 | 76 | 1019.9 |
| 20260903115619 | 56 | 220 | 0.0 | 1.0 | 0.00 | 0.00 | 0.00 | 75 | 1020.2 |
| 20260903105618 | 56 | 220 | 0.0 | 3.0 | 0.00 | 0.00 | 0.00 | 76 | 1020.1 |
| 20260903095617 | 57 | 221 | 1.0 | 7.0 | 0.00 | 0.00 | 0.00 | 77 | 1019.2 |
| 20260903085617 | 57 | 239 | 2.0 | 6.0 | 0.00 | 0.00 | 0.00 | 76 | 1019.0 |
| 20260903075617 | 58 | 225 | 3.0 | 9.0 | 0.00 | 0.00 | 0.00 | 72 | 1018.5 |
| 20260903065618 | 59 | 258 | 3.0 | 9.0 | 0.00 | 0.00 | 0.00 | 72 | 1018.1 |